Logan, UT

10:35 AM MDT on August 25, 2016 (GMT -0600)
Logan-Cache

Weather History for KLGU - January, 2014

Change the Weather History Date:

Wednesday, January 22, 2014

  Actual Average Record
Temperature  
Mean Temperature 12 °F -  
Max Temperature 24 °F 30 °F 49 °F (1970)
Min Temperature 1 °F 12 °F -21 °F (1962)
Degree Days  
Heating Degree Days 52    
Moisture  
Dew Point 7 °F    
Average Humidity 81    
Maximum Humidity 88    
Minimum Humidity 74    
Precipitation  
Precipitation 0.00 in - - ()
Sea Level Pressure  
Sea Level Pressure 30.32 in    
Wind  
Wind Speed 3 mph (NNW)    
Max Wind Speed 8 mph    
Max Gust Speed -    
Visibility 3 miles    
Events Fog , Snow    
Averages and records for this station are not official NWS values.
T = Trace of Precipitation, MM = Missing Value Source: NWS Daily Summary

Daily Weather History Graph

Daily Weather History Graph

Search for Another Location

Airport or City:

Trip Planner

Search our weather history database for the weather conditions in past years. The results will help you decide how hot, cold, wet, or windy it might be!

Date:

Astronomy

Jan. 22, 2014 Rise Set
Actual Time 7:48 AM MST 5:30 PM MST
Civil Twilight 7:18 AM MST 6:00 PM MST
Nautical Twilight 6:44 AM MST 6:34 PM MST
Astronomical Twilight 6:11 AM MST 7:07 PM MST
Moon No Moon Rise 10:45 AM MST (1/22)
Length of Visible Light 10h 42m
Length of Day
9h 42m
Waning Gibbous, 65% of the Moon is Illuminated
Jan 22
Waning Gibbous
Jan 23
Last Quarter
Jan 30
New
Feb 6
First Quarter
Feb 14
Full

Hourly Weather History & Observations

Time (MST) Temp. Windchill Dew Point Humidity Pressure Visibility Wind Dir Wind Speed Gust Speed Precip Events Conditions
12:51 AM 8.1 °F 1.4 °F 5.0 °F 87% 30.48 in 4.0 mi ESE 3.5 mph - N/A   Clear
1:51 AM 8.1 °F - 3.0 °F 80% 30.45 in 4.0 mi Calm Calm - N/A   Haze
2:11 AM 6.1 °F - 3.0 °F 87% 30.29 in 4.0 mi Calm Calm - N/A   Scattered Clouds
2:17 AM 6.1 °F - 1.9 °F 83% 30.29 in 2.5 mi Calm Calm - N/A   Mostly Cloudy
2:21 AM 7.0 °F - 1.9 °F 80% 30.29 in 0.8 mi Calm Calm - N/A   Haze
2:51 AM 7.0 °F - 3.9 °F 87% 30.45 in 0.2 mi Calm Calm - N/A Fog Light Freezing Fog
3:51 AM 7.0 °F - 3.0 °F 84% 30.43 in 0.5 mi Calm Calm - N/A Fog Light Freezing Fog
3:55 AM 7.0 °F - 1.9 °F 80% 30.27 in 1.5 mi Calm Calm - N/A   Haze
3:58 AM 7.0 °F - 1.9 °F 80% 30.27 in 3.0 mi Calm Calm - N/A   Haze
4:23 AM 3.9 °F -3.4 °F -0.9 °F 80% 30.26 in 1.2 mi North 3.5 mph - N/A   Haze
4:28 AM 1.9 °F -7.6 °F -2.9 °F 80% 30.26 in 0.2 mi North 4.6 mph - N/A   Haze
4:37 AM 1.9 °F -9.2 °F -0.9 °F 88% 30.26 in 0.2 mi NNW 5.8 mph - N/A Fog Light Freezing Fog
4:51 AM 3.0 °F -4.4 °F -0.0 °F 87% 30.43 in 0.2 mi NW 3.5 mph - N/A Fog Light Freezing Fog
5:51 AM 3.0 °F - -2.0 °F 80% 30.45 in 0.2 mi Calm Calm - N/A   Haze
6:51 AM 5.0 °F - 1.0 °F 84% 30.45 in 0.2 mi Calm Calm - N/A Fog Light Freezing Fog
7:51 AM 6.1 °F -0.9 °F 1.0 °F 80% 30.41 in 0.2 mi NNW 3.5 mph - N/A   Haze
8:51 AM 6.1 °F -0.9 °F 1.9 °F 83% 30.42 in 0.2 mi NW 3.5 mph - N/A Fog Light Freezing Fog
9:51 AM 10.0 °F -1.9 °F 3.9 °F 76% 30.44 in 0.2 mi SW 8.1 mph - 0.00 in Snow Heavy Snow
10:44 AM 15.1 °F 9.4 °F 10.0 °F 80% 30.21 in 1.2 mi WSW 3.5 mph - 0.00 in   Haze
10:51 AM 15.1 °F 9.4 °F 10.9 °F 84% 30.37 in 1.2 mi WSW 3.5 mph - 0.00 in   Mostly Cloudy
11:13 AM 16.0 °F 7.4 °F 9.0 °F 74% 30.20 in 0.8 mi NE 5.8 mph - N/A   Haze
11:21 AM 16.0 °F 8.8 °F 9.0 °F 74% 30.20 in 1.2 mi NNE 4.6 mph - N/A   Haze
11:29 AM 16.0 °F 10.4 °F 10.0 °F 77% 30.19 in 2.0 mi North 3.5 mph - N/A   Haze
11:45 AM 18.0 °F 12.7 °F 10.9 °F 74% 30.17 in 3.0 mi North 3.5 mph - N/A   Haze
11:51 AM 18.0 °F 9.8 °F 12.0 °F 78% 30.34 in 3.0 mi NW 5.8 mph - N/A   Haze
12:51 PM 19.0 °F - 15.1 °F 85% 30.27 in 4.0 mi Calm Calm - N/A   Clear
1:51 PM 21.9 °F 14.5 °F 15.1 °F 75% 30.27 in 5.0 mi NNE 5.8 mph - N/A   Haze
2:51 PM 21.9 °F 13.4 °F 16.0 °F 78% 30.25 in 5.0 mi SW 6.9 mph - N/A   Haze
3:51 PM 24.1 °F 18.2 °F 17.1 °F 75% 30.25 in 6.0 mi SW 4.6 mph - N/A   Haze
4:51 PM 23.0 °F 17.0 °F 16.0 °F 74% 30.28 in 5.0 mi NE 4.6 mph - N/A   Haze
5:51 PM 18.0 °F 9.8 °F 12.9 °F 81% 30.30 in 5.0 mi North 5.8 mph - N/A   Haze
6:51 PM 19.9 °F 13.4 °F 14.0 °F 78% 30.30 in 6.0 mi South 4.6 mph - N/A   Haze
7:51 PM 14.0 °F 5.1 °F 10.0 °F 84% 30.34 in 5.0 mi North 5.8 mph - N/A   Clear
8:51 PM 19.0 °F 12.3 °F 14.0 °F 81% 30.32 in 5.0 mi South 4.6 mph - N/A   Haze
9:51 PM 17.1 °F - 12.9 °F 84% 30.32 in 4.0 mi Calm Calm - N/A   Scattered Clouds
10:51 PM 19.0 °F - 14.0 °F 81% 30.32 in 5.0 mi Calm Calm - N/A   Haze
11:51 PM 12.9 °F 3.8 °F 10.0 °F 88% 30.35 in 4.0 mi NE 5.8 mph - N/A   Scattered Clouds